Back to catalog

CZ-4 DEB

AliveSSO
NORAD 26449·DEBRIS·🇨🇳 China

Launched Oct 14, 1999 from Taiyuan Satellite Launch Center

Loading…

Next Passes (next 24 hours)

TLE

FreshSource: Space-Track

Epoch: Sep 14, 2026, 02:59 UTC

1 26449U 99057KW  26257.12463875  .00000779  00000-0  20036-3 0  9990
2 26449  98.5036 325.0198 0076233 330.5336  58.1001 14.51391416391463

Track CZ-4 DEB in real time with AllMySat

Download on the App Store